"Timestamp","TZ","WindDir_Mean (deg)","WindSpd_Mean (km/h)","WindSpd_Min (km/h)","WindSpd_Max (km/h)","Temp_Mean (deg)","RH_Mean (%)","MSLP_Mean (hPa)","Rain_Acc (mm)","Rain_Intensity (mm/h)","Hail_Acc (hits/cm2)","Hail_Intensity (hits/cm2hr)","Solar_Mean (W/m2)"
2018/03/08 00:00:00.008,n,174,7.56,5.04,10.440002,21.6,61.5,1019.52,0,0,0,0,0.026131
2018/03/08 00:01:00.000,n,192,13.68,10.8,16.919998,21.6,61.5,1019.52,0,0,0,0,0.026131
2018/03/08 00:02:00.001,n,223,8.28,6.12,10.08,21.6,61.6,1019.52,0,0,0,0,0.026131
2018/03/08 00:03:00.000,n,132,7.92,5.04,9.72,21.6,61.4,1019.42,0,0,0,0,0.027008
2018/03/08 00:04:00.000,n,130,4.32,3.24,5.76,21.6,61.4,1019.42,0,0,0,0,0.027008
2018/03/08 00:05:00.000,n,180,9,8.28,9.72,21.6,61.3,1019.42,0,0,0,0,0.026131
2018/03/08 00:06:00.006,n,21,0.72,0.36,1.8,21.6,61.5,1019.42,0,0,0,0,0.026131
2018/03/08 00:07:00.003,n,135,11.52,9.72,14.4,21.6,61.1,1019.42,0,0,0,0,0.024376
2018/03/08 00:08:00.000,n,166,6.12,5.76,6.48,21.6,61.2,1019.42,0,0,0,0,0.031357
2018/03/08 00:09:00.013,n,147,6.12,5.04,7.2,21.6,61.3,1019.32,0,0,0,0,0.025215
2018/03/08 00:10:00.000,n,173,12.96,11.88,15.12,21.6,61.2,1019.32,0,0,0,0,0.027008
2018/03/08 00:11:00.000,n,168,5.4,5.04,6.12,21.6,61.3,1019.32,0,0,0,0,0.032196
2018/03/08 00:12:00.000,n,146,9.72,6.48,11.16,21.6,61.2,1019.22,0,0,0,0,0.033951
2018/03/08 00:13:00.003,n,141,6.48,5.4,7.56,21.6,61.4,1019.22,0,0,0,0,0.027008
2018/03/08 00:14:00.000,n,193,11.88,11.16,12.6,21.6,61.3,1019.22,0,0,0,0,0.027847
2018/03/08 00:15:00.000,n,164,5.4,3.24,6.48,21.6,61.5,1019.22,0,0,0,0,0.026131
2018/03/08 00:16:00.012,n,149,12.24,10.8,14.04,21.6,61.3,1019.22,0,0,0,0,0.023499
2018/03/08 00:17:00.009,n,158,11.88,9.36,14.04,21.6,61.1,1019.22,0,0,0,0,0.023499
2018/03/08 00:18:00.005,n,194,11.88,10.08,12.6,21.6,61.4,1019.12,0,0,0,0,0.024376
2018/03/08 00:19:00.000,n,136,8.28,7.92,8.28,21.6,61.4,1019.12,0,0,0,0,0.023499
2018/03/08 00:20:00.000,n,186,6.84,4.68,9,21.5,61.3,1019.12,0,0,0,0,0.031357
2018/03/08 00:21:00.002,n,158,9,6.48,11.16,21.5,61.1,1019.12,0,0,0,0,0.023499
2018/03/08 00:22:00.000,n,175,16.2,14.4,18.359998,21.5,61,1019.12,0,0,0,0,0.029602
2018/03/08 00:23:00.000,n,183,7.56,7.2,7.92,21.5,61.1,1019.12,0,0,0,0,0.021782
2018/03/08 00:24:00.000,n,144,12.96,10.440002,15.12,21.5,60.9,1019.02,0,0,0,0,0.023499
2018/03/08 00:25:00.008,n,94,4.32,2.52,5.76,21.5,60.8,1019.02,0,0,0,0,0.026131
2018/03/08 00:26:00.006,n,155,9.36,7.92,12.24,21.5,61.1,1018.92,0,0,0,0,0.024376
2018/03/08 00:27:00.002,n,142,9.36,7.56,11.16,21.5,61.2,1018.92,0,0,0,0,0.020027
2018/03/08 00:28:00.000,n,191,8.28,3.96,12.24,21.5,61.2,1018.92,0,0,0,0,0.025215
2018/03/08 00:29:00.000,n,141,7.56,5.04,10.440002,21.5,61.1,1018.92,0,0,0,0,0.032196
2018/03/08 00:30:00.000,n,142,13.32,11.88,14.76,21.5,61,1019.02,0,0,0,0,0.032196
2018/03/08 00:31:00.000,n,168,6.48,4.32,7.92,21.5,61.2,1019.02,0,0,0,0,0.030441
2018/03/08 00:32:00.004,n,174,9,5.04,12.24,21.5,61.2,1019.02,0,0,0,0,0.022621
2018/03/08 00:33:00.002,n,198,1.44,0.72,1.8,21.5,61.4,1019.02,0,0,0,0,0.024376
2018/03/08 00:34:00.000,n,177,5.4,5.04,6.12,21.5,61.4,1019.02,0,0,0,0,0.024376
2018/03/08 00:35:00.012,n,153,7.92,6.48,10.440002,21.5,61.4,1019.12,0,0,0,0,0.020027
2018/03/08 00:36:00.009,n,137,11.16,7.92,12.24,21.4,61,1019.02,0,0,0,0,0.023499
2018/03/08 00:37:00.000,n,115,4.68,2.52,7.56,21.4,61.3,1019.02,0,0,0,0,0.022621
2018/03/08 00:38:00.002,n,143,5.76,2.52,6.48,21.4,61.4,1019.02,0,0,0,0,0.022621
2018/03/08 00:39:00.000,n,171,5.4,4.68,6.84,21.4,61.5,1019.02,0,0,0,0,0.023499
2018/03/08 00:40:00.000,n,188,9.72,8.28,11.16,21.4,61.1,1018.92,0,0,0,0,0.025215
2018/03/08 00:41:00.000,n,182,9.72,6.84,12.6,21.4,61.2,1018.92,0,0,0,0,0.031357
2018/03/08 00:42:00.009,n,153,6.12,4.32,6.84,21.4,61.4,1018.92,0,0,0,0,0.023499
2018/03/08 00:43:00.006,n,183,5.4,4.68,6.48,21.4,61.3,1018.92,0,0,0,0,0.025215
2018/03/08 00:44:00.003,n,220,5.76,3.6,7.56,21.4,61.2,1019.02,0,0,0,0,0.024376
2018/03/08 00:45:00.000,n,140,3.96,2.16,6.84,21.4,61.2,1019.02,0,0,0,0,0.029602
2018/03/08 00:46:00.000,n,157,1.44,0.72,3.96,21.4,61.3,1019.02,0,0,0,0,0.031357
2018/03/08 00:47:00.000,n,180,9.72,9,10.440002,21.4,61.4,1019.02,0,0,0,0,0.031357
2018/03/08 00:48:00.000,n,94,3.6,1.08,6.12,21.4,61.3,1019.02,0,0,0,0,0.023499
2018/03/08 00:49:00.005,n,147,6.48,5.4,8.28,21.4,61.4,1019.02,0,0,0,0,0.021782
2018/03/08 00:50:00.003,n,107,3.6,2.52,4.32,21.4,61.5,1019.02,0,0,0,0,0.021782
2018/03/08 00:51:00.000,n,178,7.56,6.12,9.72,21.4,61.5,1019.02,0,0,0,0,0.021782
2018/03/08 00:52:00.000,n,166,11.52,8.64,14.4,21.4,61.5,1018.92,0,0,0,0,0.027008
2018/03/08 00:53:00.010,n,156,6.84,5.4,8.28,21.3,61.5,1018.92,0,0,0,0,0.021782
2018/03/08 00:54:00.007,n,203,5.04,3.24,5.76,21.3,61.7,1018.92,0,0,0,0,0.022621
2018/03/08 00:55:00.000,n,168,10.8,9.72,12.24,21.3,61.4,1018.92,0,0,0,0,0.023499
2018/03/08 00:56:00.000,n,167,10.8,10.08,12.24,21.4,61.4,1018.92,0,0,0,0,0.017433
2018/03/08 00:57:00.000,n,178,12.24,11.16,14.76,21.4,61.2,1018.82,0,0,0,0,0.020866
2018/03/08 00:58:00.000,n,156,4.68,1.44,9,21.4,61.5,1018.92,0,0,0,0,0.022621
2018/03/08 00:59:00.008,n,184,9.72,7.56,10.8,21.4,61.5,1018.92,0,0,0,0,0.018272
2018/03/08 01:00:00.006,n,177,3.96,3.24,3.96,21.3,61.7,1018.92,0,0,0,0,0.021782
2018/03/08 01:01:00.003,n,176,6.84,5.4,7.56,21.3,61.8,1018.92,0,0,0,0,0.020027
2018/03/08 01:02:00.000,n,187,5.4,3.6,6.84,21.3,62,1018.92,0,0,0,0,0.020866
2018/03/08 01:03:00.013,n,168,7.2,4.68,9,21.3,61.9,1018.92,0,0,0,0,0.027008
2018/03/08 01:04:00.000,n,197,6.12,5.76,6.84,21.3,61.9,1018.92,0,0,0,0,0.028725
2018/03/08 01:05:00.000,n,180,6.48,6.12,6.84,21.3,62,1018.92,0,0,0,0,0.032158
2018/03/08 01:06:00.002,n,190,7.56,4.68,9.36,21.3,61.9,1018.82,0,0,0,0,0.03479
2018/03/08 01:07:00.000,n,173,9,7.92,9.72,21.3,61.8,1018.82,0,0,0,0,0.0383
2018/03/08 01:08:00.000,n,189,5.76,4.68,6.84,21.3,62,1018.72,0,0,0,0,0.0383
2018/03/08 01:09:00.009,n,163,5.76,4.68,7.2,21.3,62.1,1018.72,0,0,0,0,0.032158
2018/03/08 01:10:00.007,n,152,7.56,6.48,8.64,21.3,62,1018.72,0,0,0,0,0.037384
2018/03/08 01:11:00.004,n,176,10.8,10.08,11.52,21.3,62,1018.72,0,0,0,0,0.037384
2018/03/08 01:12:00.001,n,145,4.68,2.88,6.12,21.3,62,1018.72,0,0,0,0,0.03479
2018/03/08 01:13:00.000,n,206,11.52,8.64,12.6,21.3,62.1,1018.72,0,0,0,0,0.031319
2018/03/08 01:14:00.000,n,159,10.440002,6.84,12.24,21.3,61.8,1018.72,0,0,0,0,0.033913
2018/03/08 01:15:00.000,n,182,6.12,5.76,6.48,21.3,62.2,1018.72,0,0,0,0,0.0383
2018/03/08 01:16:00.005,n,173,10.440002,9.36,11.52,21.3,62.2,1018.72,0,0,0,0,0.032158
2018/03/08 01:17:00.003,n,142,2.52,0.36,3.96,21.3,62,1018.72,0,0,0,0,0.031319
2018/03/08 01:18:00.000,n,184,9.72,7.92,11.88,21.3,62.1,1018.72,0,0,0,0,0.032158
2018/03/08 01:19:00.000,n,161,13.32,11.52,15.48,21.3,62.1,1018.62,0,0,0,0,0.033035
2018/03/08 01:20:00.011,n,162,7.56,6.48,8.64,21.2,62.1,1018.62,0,0,0,0,0.029564
2018/03/08 01:21:00.009,n,152,7.92,5.4,11.16,21.2,62.3,1018.62,0,0,0,0,0.039139
2018/03/08 01:22:00.000,n,155,11.88,10.08,12.6,21.2,62.1,1018.62,0,0,0,0,0.032158
2018/03/08 01:23:00.003,n,173,6.48,5.04,7.92,21.2,62.4,1018.62,0,0,0,0,0.033913
2018/03/08 01:24:00.000,n,183,1.8,0.36,3.96,21.2,62.7,1018.62,0,0,0,0,0.035667
2018/03/08 01:25:00.000,n,172,8.64,7.2,11.16,21.2,62.5,1018.62,0,0,0,0,0.035667
2018/03/08 01:26:00.000,n,175,13.68,11.52,16.919998,21.2,62.3,1018.62,0,0,0,0,0.033035
2018/03/08 01:27:00.009,n,191,5.4,5.04,6.48,21.2,62.4,1018.62,0,0,0,0,0.033035
2018/03/08 01:28:00.006,n,188,8.64,6.84,11.88,21.2,62.6,1018.62,0,0,0,0,0.036507
2018/03/08 01:29:00.004,n,186,7.56,6.84,8.28,21.2,62.5,1018.62,0,0,0,0,0.043488
2018/03/08 01:30:00.001,n,214,3.24,0.72,5.04,21.2,62.7,1018.62,0,0,0,0,0.033035
2018/03/08 01:31:00.000,n,197,6.12,5.4,7.56,21.2,62.8,1018.62,0,0,0,0,0.032158
2018/03/08 01:32:00.000,n,177,5.76,5.4,6.84,21.2,62.8,1018.62,0,0,0,0,0.033913
2018/03/08 01:33:00.000,n,163,12.6,11.16,13.68,21.2,62.5,1018.62,0,0,0,0,0.033035
2018/03/08 01:34:00.006,n,190,3.6,0.72,5.4,21.1,62.8,1018.62,0,0,0,0,0.036507
2018/03/08 01:35:00.003,n,144,8.28,6.12,9.72,21.1,62.9,1018.62,0,0,0,0,0.033913
2018/03/08 01:36:00.000,n,211,4.32,3.24,5.04,21.1,62.9,1018.62,0,0,0,0,0.033035
2018/03/08 01:37:00.000,n,265,1.44,1.08,2.16,21.1,63.7,1018.62,0,0,0,0,0.03479
2018/03/08 01:38:00.012,n,167,3.24,0.72,4.68,21.1,63.1,1018.62,0,0,0,0,0.032158
2018/03/08 01:39:00.010,n,160,2.52,0.36,5.76,21.1,63.4,1018.62,0,0,0,0,0.033035
2018/03/08 01:40:00.000,n,209,6.48,5.04,7.92,21,63.2,1018.62,0,0,0,0,0.035667
2018/03/08 01:41:00.003,n,155,4.32,1.44,5.4,21,63.2,1018.62,0,0,0,0,0.0383
2018/03/08 01:42:00.000,n,163,6.48,4.68,7.2,21,63.2,1018.62,0,0,0,0,0.040016
2018/03/08 01:43:00.000,n,139,2.16,1.44,3.6,21,63.3,1018.52,0,0,0,0,0.030441
2018/03/08 01:44:00.000,n,173,5.4,4.32,6.48,21,63.4,1018.52,0,0,0,0,0.033035
2018/03/08 01:45:00.009,n,146,1.44,0.72,2.16,20.9,63.5,1018.52,0,0,0,0,0.033035
2018/03/08 01:46:00.007,n,193,8.64,7.92,9,20.9,63.3,1018.52,0,0,0,0,0.029564
2018/03/08 01:47:00.004,n,189,2.16,0.72,3.24,20.9,63.5,1018.52,0,0,0,0,0.031319
2018/03/08 01:48:00.001,n,161,5.76,4.68,8.28,20.9,63.5,1018.52,0,0,0,0,0.032158
2018/03/08 01:49:00.000,n,198,10.08,9.36,11.16,20.9,63.6,1018.52,0,0,0,0,0.032158
2018/03/08 01:50:00.000,n,153,7.56,4.68,9,20.9,63.4,1018.52,0,0,0,0,0.03479
2018/03/08 01:51:00.000,n,179,7.56,6.12,9,20.9,63.6,1018.52,0,0,0,0,0.030441
2018/03/08 01:52:00.000,n,64,2.16,0.72,3.96,20.9,63.7,1018.52,0,0,0,0,0.037384
2018/03/08 01:53:00.004,n,285,6.12,5.4,6.48,20.9,64.1,1018.52,0,0,0,0,0.031319
2018/03/08 01:54:00.001,n,185,3.96,1.44,6.12,20.8,63.9,1018.42,0,0,0,0,0.031319
2018/03/08 01:55:00.000,n,199,4.68,3.96,6.12,20.8,64.300004,1018.42,0,0,0,0,0.03479
2018/03/08 01:56:00.013,n,176,8.64,5.76,10.08,20.8,64.1,1018.42,0,0,0,0,0.03479
2018/03/08 01:57:00.011,n,160,9,5.4,12.24,20.8,63.8,1018.42,0,0,0,0,0.030441
2018/03/08 01:58:00.000,n,172,8.64,7.92,11.16,20.7,64.300004,1018.42,0,0,0,0,0.030441
2018/03/08 01:59:00.000,n,79,1.44,0.36,2.52,20.7,64.699996,1018.42,0,0,0,0,0.028725
2018/03/08 02:00:00.003,n,209,1.8,1.08,2.16,20.7,64.300004,1018.42,0,0,0,0,0.027809
2018/03/08 02:01:00.001,n,237,3.24,2.52,3.96,20.7,64.4,1018.42,0,0,0,0,0.028725
2018/03/08 02:02:00.000,n,142,6.12,5.4,7.56,20.7,64.4,1018.42,0,0,0,0,0.026932
2018/03/08 02:03:00.000,n,183,2.88,2.52,2.88,20.7,64.6,1018.42,0,0,0,0,0.026932
2018/03/08 02:04:00.007,n,158,2.16,0,3.96,20.6,64.4,1018.42,0,0,0,0,0.027809
2018/03/08 02:05:00.005,n,238,5.04,3.96,5.76,20.6,64.800004,1018.42,0,0,0,0,0.026932
2018/03/08 02:06:00.002,n,161,7.2,6.12,7.92,20.6,64.6,1018.42,0,0,0,0,0.025215
2018/03/08 02:07:00.000,n,156,2.88,1.08,4.32,20.6,64.699996,1018.42,0,0,0,0,0.027809
2018/03/08 02:08:00.000,n,184,2.16,0.72,4.68,20.6,64.4,1018.42,0,0,0,0,0.024338
2018/03/08 02:09:00.000,n,74,2.88,2.16,3.24,20.6,65.1,1018.42,0,0,0,0,0.025215
2018/03/08 02:10:00.000,n,143,3.96,3.6,4.68,20.6,64.699996,1018.42,0,0,0,0,0.023499
2018/03/08 02:11:00.005,n,266,1.08,0.36,1.44,20.6,65.1,1018.42,0,0,0,0,0.025215
2018/03/08 02:12:00.003,n,168,5.4,2.52,7.56,20.6,64.9,1018.42,0,0,0,0,0.025215
2018/03/08 02:13:00.000,n,253,2.52,1.44,3.24,20.6,65,1018.42,0,0,0,0,0.023499
2018/03/08 02:14:00.013,n,293,3.24,2.52,3.96,20.5,65.300004,1018.42,0,0,0,0,0.027809
2018/03/08 02:15:00.011,n,228,5.04,4.68,5.4,20.5,64.800004,1018.42,0,0,0,0,0.025215
2018/03/08 02:16:00.000,n,188,5.04,4.32,5.4,20.5,65.1,1018.42,0,0,0,0,0.024338
2018/03/08 02:17:00.000,n,240,1.8,1.44,2.16,20.5,65.5,1018.42,0,0,0,0,0.024338
2018/03/08 02:18:00.002,n,44,0.72,0.36,2.16,20.5,64.9,1018.42,0,0,0,0,0.022583
2018/03/08 02:19:00.000,n,335,1.08,0.36,2.16,20.5,65,1018.42,0,0,0,0,0.028725
2018/03/08 02:20:00.000,n,308,3.24,2.16,3.96,20.5,65.300004,1018.42,0,0,0,0,0.022583
2018/03/08 02:21:00.010,n,122,1.08,0.72,1.8,20.5,65.6,1018.42,0,0,0,0,0.030441
2018/03/08 02:22:00.008,n,156,5.04,2.88,6.12,20.5,64.9,1018.42,0,0,0,0,0.027809
2018/03/08 02:23:00.004,n,155,7.56,6.84,7.92,20.4,64.800004,1018.42,0,0,0,0,0.033035
2018/03/08 02:24:00.002,n,178,10.8,7.56,12.6,20.4,64.6,1018.32,0,0,0,0,0.030441
2018/03/08 02:25:00.000,n,179,5.76,3.96,6.84,20.4,64.9,1018.32,0,0,0,0,0.026932
2018/03/08 02:26:00.000,n,168,6.48,5.4,7.2,20.4,65.1,1018.32,0,0,0,0,0.022583
2018/03/08 02:27:00.000,n,156,6.12,4.68,6.84,20.4,65,1018.32,0,0,0,0,0.026093
2018/03/08 02:28:00.000,n,174,8.28,7.2,9,20.3,65.300004,1018.32,0,0,0,0,0.022583
2018/03/08 02:29:00.007,n,157,6.84,6.12,7.56,20.3,65.300004,1018.42,0,0,0,0,0.023499
2018/03/08 02:30:00.004,n,159,7.92,7.2,8.64,20.3,65.699996,1018.42,0,0,0,0,0.023499
2018/03/08 02:31:00.001,n,141,5.04,4.68,5.04,20.3,65.5,1018.42,0,0,0,0,0.025215
2018/03/08 02:32:00.014,n,158,6.12,5.4,6.84,20.3,65.699996,1018.52,0,0,0,0,0.024338
2018/03/08 02:33:00.011,n,145,4.32,3.96,4.68,20.3,65.6,1018.52,0,0,0,0,0.028725
2018/03/08 02:34:00.000,n,173,4.32,2.52,6.48,20.3,65.6,1018.62,0,0,0,0,0.028725
2018/03/08 02:35:00.000,n,195,4.32,4.32,4.68,20.3,65.5,1018.62,0,0,0,0,0.029564
2018/03/08 02:36:00.004,n,103,3.24,2.16,4.32,20.3,65.699996,1018.62,0,0,0,0,0.026932
2018/03/08 02:37:00.002,n,183,2.88,1.44,4.68,20.3,65.800004,1018.72,0,0,0,0,0.024338
2018/03/08 02:38:00.000,n,163,6.12,5.4,6.84,20.3,65.1,1018.72,0,0,0,0,0.025215
2018/03/08 02:39:00.000,n,149,3.96,3.6,4.68,20.3,65.1,1018.72,0,0,0,0,0.026932
2018/03/08 02:40:00.009,n,168,9.36,9,10.08,20.3,64.699996,1018.72,0,0,0,0,0.026093
2018/03/08 02:41:00.007,n,153,6.12,5.4,7.2,20.3,65.1,1018.72,0,0,0,0,0.030441
2018/03/08 02:42:00.003,n,181,6.12,5.76,7.2,20.3,65.4,1018.72,0,0,0,0,0.026093
2018/03/08 02:43:00.001,n,212,4.68,3.96,5.4,20.3,65.5,1018.82,0,0,0,0,0.023499
2018/03/08 02:44:00.000,n,141,2.52,1.44,3.24,20.3,65.6,1018.82,0,0,0,0,0.022583
2018/03/08 02:45:00.000,n,184,3.96,3.6,3.96,20.3,65.5,1018.82,0,0,0,0,0.024338
2018/03/08 02:46:00.000,n,175,10.8,10.440002,11.88,20.3,65.300004,1018.82,0,0,0,0,0.021744
2018/03/08 02:47:00.005,n,163,7.2,3.24,9,20.2,65.5,1018.82,0,0,0,0,0.027809
2018/03/08 02:48:00.002,n,191,4.68,3.6,6.84,20.2,65.300004,1018.82,0,0,0,0,0.01915
2018/03/08 02:49:00.000,n,142,9,6.48,13.68,20.2,65.6,1018.92,0,0,0,0,0.019989
2018/03/08 02:50:00.013,n,157,8.64,7.2,10.440002,20.2,66.199996,1018.92,0,0,0,0,0.029564
2018/03/08 02:51:00.011,n,141,14.4,12.6,17.28,20.2,67.6,1018.82,0.01,0.8,0,0,0.021744
2018/03/08 02:52:00.000,n,142,4.32,2.52,6.48,20.1,68.3,1018.92,0.01,0,0,0,0.022583
2018/03/08 02:53:00.000,n,188,5.04,4.32,5.76,20,69.5,1018.82,0.01,0,0,0,0.022583
2018/03/08 02:54:00.000,n,148,13.32,12.24,14.04,19.9,69.7,1018.82,0.01,0,0,0,0.018234
2018/03/08 02:55:00.000,n,130,10.08,4.68,14.4,19.8,70.7,1018.82,0.01,0,0,0,0.019989
2018/03/08 02:56:00.005,n,125,14.76,12.96,15.84,19.7,71.4,1018.82,0.01,0,0,0,0.020866
2018/03/08 02:57:00.010,n,137,4.68,1.8,5.4,19.6,72.3,1018.82,0.01,0,0,0,0.01915
2018/03/08 02:58:00.000,n,131,9.36,8.64,10.440002,19.5,72.5,1018.72,0.01,0,0,0,0.025215
2018/03/08 02:59:00.003,n,169,5.4,4.68,6.12,19.4,73.7,1018.72,0.01,0,0,0,0.029564
2018/03/08 03:00:00.009,n,148,6.12,4.68,7.56,19.4,74.1,1018.72,0.01,0,0,0,0.02697
2018/03/08 03:01:00.000,n,149,8.64,8.64,9,19.3,74.1,1018.62,0.01,0,0,0,0.030441
2018/03/08 03:02:00.003,n,156,4.68,3.96,5.4,19.2,74.6,1018.72,0.01,0,0,0,0.027847
2018/03/08 03:03:00.000,n,180,4.68,3.96,6.12,19.2,75.2,1018.62,0.01,0,0,0,0.028725
2018/03/08 03:04:00.000,n,153,5.04,4.68,5.76,19.2,75.2,1018.62,0.01,0,0,0,0.029564
2018/03/08 03:05:00.003,n,157,7.92,7.2,8.64,19.2,75.6,1018.62,0.01,0,0,0,0.025215
2018/03/08 03:06:00.009,n,153,6.48,5.76,7.2,19.1,75.9,1018.62,0.01,0,0,0,0.024338
2018/03/08 03:07:00.000,n,157,2.16,1.44,3.24,19.1,76.2,1018.62,0.01,0,0,0,0.02697
2018/03/08 03:08:00.002,n,150,5.4,5.04,6.12,19.1,76.3,1018.72,0.01,0,0,0,0.027885
2018/03/08 03:09:00.007,n,187,10.08,7.56,11.16,19.1,76.3,1018.62,0.01,0,0,0,0.03746
2018/03/08 03:10:00.000,n,218,2.88,2.88,3.24,19.1,76.7,1018.62,0.01,0,0,0,0.030441
2018/03/08 03:11:00.002,n,239,2.52,2.16,2.88,19.2,76.7,1018.62,0.01,0,0,0,0.027008
2018/03/08 03:12:00.000,n,131,1.8,1.8,2.16,19.2,76.6,1018.52,0.01,0,0,0,0.026093
2018/03/08 03:13:00.000,n,270,1.08,0.72,1.8,19.2,76.7,1018.62,0.01,0,0,0,0.026093
2018/03/08 03:14:00.002,n,211,3.24,3.24,3.6,19.2,76.5,1018.62,0.01,0,0,0,0.024376
2018/03/08 03:15:00.008,n,173,2.52,1.8,2.88,19.2,76.3,1018.62,0.01,0,0,0,0.025253
2018/03/08 03:16:00.001,n,181,1.08,0.72,1.8,19.2,76.1,1018.62,0.01,0,0,0,0.024376
2018/03/08 03:17:00.003,n,256,1.44,0.72,2.16,19.2,76.7,1018.62,0.01,0,0,0,0.024376
2018/03/08 03:18:00.009,n,106,1.44,0.36,1.8,19.2,76.8,1018.62,0.01,0,0,0,0.030441
2018/03/08 03:19:00.000,n,253,1.44,1.08,1.8,19.2,76.8,1018.62,0.01,0,0,0,0.031319
2018/03/08 03:20:00.003,n,253,1.8,1.44,2.52,19.2,76.1,1018.72,0.01,0,0,0,0.027008
2018/03/08 03:21:00.000,n,240,2.52,1.08,3.24,19.2,76,1018.72,0.01,0,0,0,0.022659
2018/03/08 03:22:00.000,n,247,3.24,2.52,3.6,19.2,75.7,1018.62,0.01,0,0,0,0.023499
2018/03/08 03:23:00.004,n,273,3.96,3.24,4.32,19.2,75.9,1018.72,0.01,0,0,0,0.027008
2018/03/08 03:24:00.009,n,278,3.24,2.88,3.96,19.2,76.3,1018.72,0.01,0,0,0,0.020027
2018/03/08 03:25:00.000,n,275,3.24,2.52,4.32,19.3,77,1018.62,0.01,0,0,0,0.029602
2018/03/08 03:26:00.003,n,273,5.4,4.68,5.76,19.3,75.1,1018.62,0.01,0,0,0,0.020027
2018/03/08 03:27:00.009,n,262,3.96,3.6,3.96,19.2,75.1,1018.62,0.01,0,0,0,0.018311
2018/03/08 03:28:00.000,n,267,4.68,4.32,5.04,19.2,75.1,1018.72,0.01,0,0,0,0.020027
2018/03/08 03:29:00.005,n,265,6.48,5.76,7.56,19.2,75.3,1018.62,0.01,0,0,0,0.021744
2018/03/08 03:30:00.000,n,255,7.56,7.56,7.92,19.2,75.4,1018.62,0.01,0,0,0,0.030479
2018/03/08 03:31:00.000,n,252,6.84,5.76,7.2,19.2,75.5,1018.62,0.01,0,0,0,0.033951
2018/03/08 03:32:00.000,n,256,5.4,4.68,5.76,19.2,75.4,1018.62,0.01,0,0,0,0.034828
2018/03/08 03:33:00.004,n,250,6.48,6.12,6.84,19.2,75.8,1018.62,0.01,0,0,0,0.036545
2018/03/08 03:34:00.009,n,248,6.84,6.48,7.2,19.2,75.6,1018.62,0.01,0,0,0,0.034828
2018/03/08 03:35:00.014,n,256,6.48,6.12,6.84,19.2,76,1018.62,0.01,0,0,0,0.035706
2018/03/08 03:36:00.002,n,242,3.96,3.6,3.96,19.2,76.7,1018.62,0.01,0,0,0,0.034828
2018/03/08 03:37:00.000,n,267,4.32,3.6,4.68,19.2,75.1,1018.72,0.01,0,0,0,0.031319
2018/03/08 03:38:00.000,n,266,6.12,6.12,6.48,19.1,75,1018.72,0.01,0,0,0,0.033112
2018/03/08 03:39:00.002,n,271,3.96,3.24,3.96,19.1,75.3,1018.72,0.01,0,0,0,0.033951
2018/03/08 03:40:00.007,n,263,3.24,2.88,3.24,19.1,76,1018.72,0.01,0,0,0,0.032234
2018/03/08 03:41:00.000,n,264,2.88,2.52,3.24,19.1,75.8,1018.72,0.01,0,0,0,0.031319
2018/03/08 03:42:00.001,n,267,3.96,3.6,4.32,19.1,76.7,1018.72,0.01,0,0,0,0.033112
2018/03/08 03:43:00.007,n,270,3.6,3.6,3.6,19.2,76.1,1018.72,0.01,0,0,0,0.0383
2018/03/08 03:44:00.012,n,245,2.16,1.08,2.52,19.2,76.2,1018.82,0.01,0,0,0,0.030479
2018/03/08 03:45:00.000,n,268,1.08,0.36,1.8,19.2,76.3,1018.82,0.01,0,0,0,0.036545
2018/03/08 03:46:00.000,n,219,2.52,2.16,3.6,19.2,75.4,1018.82,0.01,0,0,0,0.028725
2018/03/08 03:47:00.000,n,203,2.16,1.8,2.52,19.1,75.1,1018.82,0.01,0,0,0,0.029602
2018/03/08 03:48:00.001,n,192,1.8,1.44,1.8,19.1,74.9,1018.82,0.01,0,0,0,0.029602
2018/03/08 03:49:00.007,n,134,0.72,0.36,1.08,19.1,75.6,1018.82,0.01,0,0,0,0.02697
2018/03/08 03:50:00.000,n,256,2.88,1.44,4.68,19.2,74.9,1018.82,0.01,0,0,0,0.028725
2018/03/08 03:51:00.000,n,236,3.96,2.88,5.04,19.2,74.4,1018.82,0.01,0,0,0,0.029602
2018/03/08 03:52:00.006,n,256,5.4,5.4,6.12,19.2,73.7,1018.92,0.01,0,0,0,0.030479
2018/03/08 03:53:00.012,n,263,5.4,5.04,6.12,19.1,73.6,1018.92,0.01,0,0,0,0.033951
2018/03/08 03:54:00.000,n,258,7.92,6.84,8.64,19.2,73,1018.92,0.01,0,0,0,0.032234
2018/03/08 03:55:00.000,n,252,3.96,3.96,4.32,19.2,73,1018.92,0.01,0,0,0,0.032234
2018/03/08 03:56:00.000,n,272,6.12,5.04,6.84,19.2,72.7,1018.92,0.01,0,0,0,0.030479
2018/03/08 03:57:00.000,n,231,3.96,3.6,4.32,19.2,72.7,1018.82,0.01,0,0,0,0.029602
2018/03/08 03:58:00.005,n,252,2.52,1.8,3.6,19.2,72.6,1018.82,0.01,0,0,0,0.028725
2018/03/08 03:59:00.000,n,250,7.2,6.12,7.92,19.3,72.6,1018.82,0.01,0,0,0,0.027885
2018/03/08 04:00:00.000,n,270,6.84,6.12,7.2,19.3,72.7,1018.82,0.01,0,0,0,0.027885
2018/03/08 04:01:00.004,n,223,6.84,5.76,7.56,19.3,72.8,1018.82,0.01,0,0,0,0.027885
2018/03/08 04:02:00.010,n,259,4.32,1.44,5.76,19.3,73.1,1018.82,0.01,0,0,0,0.033112
2018/03/08 04:03:00.015,n,256,4.68,3.6,5.4,19.3,72.9,1018.82,0.01,0,0,0,0.02697
2018/03/08 04:04:00.000,n,282,7.56,4.68,9,19.3,73.1,1018.72,0.01,0,0,0,0.030479
2018/03/08 04:05:00.000,n,250,5.4,4.68,6.12,19.4,73.2,1018.72,0.01,0,0,0,0.029602
2018/03/08 04:06:00.000,n,241,5.04,4.68,5.04,19.3,72.6,1018.72,0.01,0,0,0,0.02697
2018/03/08 04:07:00.005,n,234,2.16,0.72,3.24,19.3,72.9,1018.62,0.01,0,0,0,0.029602
2018/03/08 04:08:00.000,n,266,4.68,3.96,5.4,19.3,72.6,1018.62,0.01,0,0,0,0.029602
2018/03/08 04:09:00.000,n,273,5.04,3.96,5.76,19.3,72.3,1018.62,0.01,0,0,0,0.027885
2018/03/08 04:10:00.005,n,250,3.6,3.24,3.96,19.3,72.3,1018.62,0.01,0,0,0,0.032234
2018/03/08 04:11:00.011,n,236,3.24,2.52,3.6,19.3,72.4,1018.62,0.01,0,0,0,0.028725
2018/03/08 04:12:00.000,n,264,6.48,6.12,6.84,19.3,71.8,1018.62,0.01,0,0,0,0.028725
2018/03/08 04:13:00.000,n,245,2.88,1.8,3.6,19.3,72,1018.52,0.01,0,0,0,0.030479
2018/03/08 04:14:00.000,n,282,8.28,7.56,9,19.4,71.6,1018.52,0.01,0,0,0,0.036545
2018/03/08 04:15:00.000,n,269,6.48,5.4,7.56,19.4,71.5,1018.52,0.01,0,0,0,0.032234
2018/03/08 04:16:00.005,n,261,8.28,7.56,9.36,19.4,71.5,1018.52,0.01,0,0,0,0.029602
2018/03/08 04:17:00.000,n,259,7.2,6.48,8.28,19.4,71.3,1018.52,0.01,0,0,0,0.030479
2018/03/08 04:18:00.000,n,258,4.68,3.96,5.04,19.4,71.3,1018.42,0.01,0,0,0,0.032234
2018/03/08 04:19:00.006,n,254,7.56,7.2,7.92,19.4,71.2,1018.42,0.01,0,0,0,0.032234
2018/03/08 04:20:00.011,n,254,5.76,4.32,6.12,19.4,71.6,1018.42,0.01,0,0,0,0.033112
2018/03/08 04:21:00.017,n,235,4.32,3.24,5.04,19.5,71.6,1018.42,0.01,0,0,0,0.039177
2018/03/08 04:22:00.000,n,196,2.88,2.88,3.24,19.5,71.9,1018.42,0.01,0,0,0,0.033951
2018/03/08 04:23:00.000,n,259,2.88,2.16,4.32,19.5,71.9,1018.32,0.01,0,0,0,0.033951
2018/03/08 04:24:00.000,n,267,2.88,2.88,3.24,19.5,72,1018.32,0.01,0,0,0,0.031319
2018/03/08 04:25:00.005,n,195,5.4,4.68,6.48,19.5,72,1018.32,0.01,0,0,0,0.031319
2018/03/08 04:26:00.010,n,233,6.12,5.04,7.92,19.5,72.2,1018.32,0.01,0,0,0,0.033112
2018/03/08 04:27:00.000,n,204,2.52,2.16,2.88,19.5,72,1018.42,0.01,0,0,0,0.031319
2018/03/08 04:28:00.005,n,115,3.6,2.88,4.68,19.5,72,1018.42,0.01,0,0,0,0.032234
2018/03/08 04:29:00.010,n,201,2.88,2.52,2.88,19.5,72.5,1018.42,0.01,0,0,0,0.031319
2018/03/08 04:30:00.015,n,209,3.96,1.8,4.68,19.6,72.1,1018.42,0.01,0,0,0,0.033112
2018/03/08 04:31:00.000,n,154,6.84,5.04,8.28,19.6,71.7,1018.42,0.01,0,0,0,0.032234
2018/03/08 04:32:00.000,n,150,6.12,3.96,7.56,19.6,71.8,1018.42,0.01,0,0,0,0.033112
2018/03/08 04:33:00.000,n,155,2.16,1.44,3.24,19.6,72.3,1018.52,0.01,0,0,0,0.032234
2018/03/08 04:34:00.004,n,182,5.04,4.32,5.4,19.6,71.7,1018.52,0.01,0,0,0,0.031319
2018/03/08 04:35:00.000,n,203,5.4,4.32,6.12,19.6,72,1018.52,0.01,0,0,0,0.04528
2018/03/08 04:36:00.000,n,136,1.44,0.72,2.16,19.6,71.9,1018.52,0.01,0,0,0,0.035706
2018/03/08 04:37:00.004,n,252,1.08,0.72,1.44,19.6,72.4,1018.52,0.01,0,0,0,0.034828
2018/03/08 04:38:00.010,n,223,3.96,3.6,4.32,19.6,72.1,1018.52,0.01,0,0,0,0.034828
2018/03/08 04:39:00.016,n,237,5.04,4.32,5.76,19.6,72,1018.52,0.01,0,0,0,0.033951
2018/03/08 04:40:00.000,n,264,5.4,4.68,6.12,19.6,72.1,1018.52,0.01,0,0,0,0.039177
2018/03/08 04:41:00.000,n,198,2.88,2.16,3.96,19.6,72,1018.52,0.01,0,0,0,0.033951
2018/03/08 04:42:00.000,n,239,3.6,2.52,4.32,19.6,72,1018.52,0.01,0,0,0,0.032234
2018/03/08 04:43:00.004,n,222,1.08,0.36,2.52,19.6,72.3,1018.52,0.01,0,0,0,0.032234
2018/03/08 04:44:00.009,n,137,0.72,0,1.08,19.6,72.3,1018.52,0.01,0,0,0,0.034828
2018/03/08 04:45:00.000,n,222,6.48,6.12,6.84,19.5,72.1,1018.52,0.01,0,0,0,0.031319
2018/03/08 04:46:00.003,n,149,0.72,0,0.72,19.5,72.2,1018.52,0.01,0,0,0,0.035706
2018/03/08 04:47:00.009,n,249,3.24,2.52,3.6,19.6,72.8,1018.42,0.01,0,0,0,0.040894
2018/03/08 04:48:00.014,n,311,0.72,0.36,1.8,19.5,72.3,1018.42,0.01,0,0,0,0.033112